Cullman, AL

2:32 AM CDT on March 23, 2017 (GMT -0500)
Cullman

Weather History for K3A1 - November, 2012

Change the Weather History Date:

Tuesday, November 20, 2012

  Actual Average (KHSV) Record (KHSV)
Temperature  
Mean Temperature 52 °F -  
Max Temperature 67 °F 60 °F 79 °F (1942)
Min Temperature 37 °F 39 °F 10 °F (1914)
Degree Days  
Heating Degree Days 13    
Growing Degree Days 2 (Base 50)    
Moisture  
Dew Point 42 °F    
Average Humidity 71    
Maximum Humidity 98    
Minimum Humidity 40    
Precipitation  
Precipitation 0.00 in - - ()
Sea Level Pressure  
Sea Level Pressure 30.16 in    
Wind  
Wind Speed 1 mph (NNW)    
Max Wind Speed 7 mph    
Max Gust Speed -    
Visibility 10 miles    
Events      
Averages and records for this station are not official NWS values.
T = Trace of Precipitation, MM = Missing Value Source: NWS Daily Summary

Daily Weather History Graph

Daily Weather History Graph

Search for Another Location

Airport or City:

Trip Planner

Search our weather history database for the weather conditions in past years. The results will help you decide how hot, cold, wet, or windy it might be!

Date:

Astronomy

Nov. 20, 2012 Rise Set
Actual Time 6:25 AM CST 4:40 PM CST
Civil Twilight 5:58 AM CST 5:07 PM CST
Nautical Twilight 5:28 AM CST 5:37 PM CST
Astronomical Twilight 4:58 AM CST 6:07 PM CST
Moon 12:08 PM CST (11/20) No Moon Set
Length of Visible Light 11h 08m
Length of Day
10h 14m
First Quarter, 51% of the Moon is Illuminated
Nov 20
First Quarter
Nov 28
Full
Dec 6
Last Quarter
Dec 13
New
Dec 19
First Quarter

Hourly Weather History & Observations

Time (CST) Temp. Dew Point Humidity Pressure Visibility Wind Dir Wind Speed Gust Speed Precip Events Conditions
12:15 AM 41.9 °F 40.5 °F 95% 30.21 in 10.0 mi Calm Calm - N/A   Clear
12:35 AM 41.9 °F 40.3 °F 94% 30.20 in 10.0 mi Calm Calm - N/A   Clear
12:55 AM 41.2 °F 39.7 °F 95% 30.20 in 10.0 mi Calm Calm - N/A   Clear
1:15 AM 41.0 °F 39.7 °F 95% 30.20 in 10.0 mi Calm Calm - N/A   Clear
1:35 AM 41.2 °F 39.9 °F 95% 30.20 in 10.0 mi Calm Calm - N/A   Clear
1:55 AM 40.6 °F 39.7 °F 97% 30.20 in 10.0 mi Calm Calm - N/A   Clear
2:15 AM 40.5 °F 39.6 °F 97% 30.20 in 10.0 mi Calm Calm - N/A   Clear
2:35 AM 41.0 °F 39.7 °F 95% 30.20 in 10.0 mi Calm Calm - N/A   Clear
6:15 AM 37.6 °F 37.0 °F 98% 30.20 in 10.0 mi Calm Calm - N/A   Clear
6:35 AM 37.8 °F 37.0 °F 97% 30.21 in 7.0 mi Calm Calm - N/A   Clear
6:55 AM 37.9 °F 37.4 °F 98% 30.22 in 10.0 mi Calm Calm - N/A   Clear
7:15 AM 39.9 °F 38.7 °F 95% 30.22 in 10.0 mi Calm Calm - N/A   Clear
7:35 AM 43.0 °F 41.4 °F 94% 30.23 in 10.0 mi Calm Calm - N/A   Clear
7:55 AM 47.7 °F 44.4 °F 89% 30.23 in 10.0 mi Calm Calm - N/A   Clear
8:15 AM 52.7 °F 44.8 °F 74% 30.23 in 10.0 mi Calm Calm - N/A   Clear
8:35 AM 55.4 °F 44.4 °F 67% 30.22 in 10.0 mi Calm Calm - N/A   Clear
8:55 AM 56.8 °F 44.1 °F 62% 30.22 in 10.0 mi North 4.6 mph - N/A   Clear
9:15 AM 57.6 °F 43.7 °F 60% 30.23 in 10.0 mi NW 5.8 mph - N/A   Clear
9:35 AM 59.0 °F 43.7 °F 57% 30.22 in 10.0 mi North 3.5 mph - N/A   Clear
9:55 AM 61.0 °F 44.1 °F 54% 30.21 in 10.0 mi Calm Calm - N/A   Clear
10:15 AM 61.9 °F 43.7 °F 51% 30.20 in 10.0 mi North 3.5 mph - N/A   Clear
10:35 AM 62.4 °F 43.7 °F 50% 30.20 in 10.0 mi Calm Calm - N/A   Clear
10:55 AM 62.6 °F 43.3 °F 49% 30.19 in 10.0 mi Calm Calm - N/A   Clear
11:15 AM 63.7 °F 43.5 °F 48% 30.18 in 10.0 mi Calm Calm - N/A   Clear
11:35 AM 64.4 °F 43.3 °F 46% 30.16 in 10.0 mi WNW 3.5 mph - N/A   Clear
11:55 AM 65.5 °F 43.3 °F 45% 30.16 in 10.0 mi North 6.9 mph - N/A   Clear
12:15 PM 66.0 °F 43.3 °F 44% 30.16 in 10.0 mi North 3.5 mph - N/A   Clear
12:35 PM 65.7 °F 42.6 °F 43% 30.16 in 10.0 mi NW 5.8 mph - N/A   Clear
12:55 PM 66.4 °F 42.1 °F 41% 30.15 in 10.0 mi North 5.8 mph - N/A   Clear
1:15 PM 66.6 °F 42.3 °F 41% 30.14 in 10.0 mi NNW 3.5 mph - N/A   Clear
1:35 PM 66.2 °F 41.7 °F 41% 30.13 in 10.0 mi NNW 4.6 mph - N/A   Clear
1:55 PM 66.7 °F 41.7 °F 40% 30.12 in 10.0 mi Calm Calm - N/A   Clear
2:15 PM 67.3 °F 42.4 °F 40% 30.13 in 10.0 mi Calm Calm - N/A   Clear
2:35 PM 66.9 °F 42.8 °F 42% 30.12 in 10.0 mi NNW 3.5 mph - N/A   Clear
2:55 PM 66.6 °F 42.4 °F 42% 30.12 in 10.0 mi North 4.6 mph - N/A   Clear
3:15 PM 66.4 °F 42.3 °F 41% 30.12 in 10.0 mi NNW 3.5 mph - N/A   Clear
3:35 PM 66.0 °F 42.3 °F 42% 30.12 in 10.0 mi Calm Calm - N/A   Clear
3:55 PM 64.8 °F 41.9 °F 43% 30.12 in 10.0 mi Calm Calm - N/A   Scattered Clouds
4:15 PM 63.9 °F 42.3 °F 45% 30.11 in 10.0 mi Calm Calm - N/A   Scattered Clouds
4:35 PM 60.4 °F 43.5 °F 54% 30.11 in 10.0 mi Calm Calm - N/A   Clear
4:55 PM 55.9 °F 45.1 °F 67% 30.11 in 10.0 mi Calm Calm - N/A   Clear
5:15 PM 53.8 °F 45.0 °F 72% 30.11 in 10.0 mi Calm Calm - N/A   Clear
5:35 PM 51.6 °F 44.1 °F 75% 30.12 in 10.0 mi Calm Calm - N/A   Clear
5:55 PM 50.9 °F 43.5 °F 76% 30.12 in 10.0 mi Calm Calm - N/A   Clear
6:15 PM 50.5 °F 44.2 °F 79% 30.12 in 10.0 mi Calm Calm - N/A   Clear
6:55 PM 48.6 °F 43.2 °F 82% 30.13 in 10.0 mi Calm Calm - N/A   Clear
7:15 PM 46.9 °F 42.6 °F 85% 30.14 in 10.0 mi Calm Calm - N/A   Clear
7:35 PM 46.0 °F 42.1 °F 86% 30.14 in 10.0 mi Calm Calm - N/A   Clear
7:55 PM 45.9 °F 41.9 °F 86% 30.14 in 10.0 mi Calm Calm - N/A   Clear
8:15 PM 45.1 °F 41.9 °F 88% 30.15 in 10.0 mi Calm Calm - N/A   Clear
8:35 PM 44.6 °F 41.7 °F 90% 30.15 in 10.0 mi Calm Calm - N/A   Scattered Clouds
8:55 PM 45.3 °F 42.1 °F 88% 30.15 in 10.0 mi Calm Calm - N/A   Mostly Cloudy
9:15 PM 45.9 °F 42.3 °F 87% 30.15 in 10.0 mi Calm Calm - N/A   Scattered Clouds
9:35 PM 45.0 °F 42.1 °F 90% 30.15 in 10.0 mi Calm Calm - N/A   Scattered Clouds
9:55 PM 45.9 °F 43.0 °F 90% 30.15 in 10.0 mi Calm Calm - N/A   Mostly Cloudy
10:15 PM 46.4 °F 43.2 °F 88% 30.15 in 10.0 mi Calm Calm - N/A   Mostly Cloudy
10:35 PM 46.9 °F 43.3 °F 87% 30.15 in 10.0 mi Calm Calm - N/A   Overcast
10:55 PM 48.0 °F 44.2 °F 87% 30.15 in 10.0 mi Calm Calm - N/A   Overcast
11:15 PM 48.4 °F 44.2 °F 86% 30.14 in 10.0 mi Calm Calm - N/A   Overcast
11:35 PM 48.9 °F 43.9 °F 83% 30.14 in 10.0 mi Calm Calm - N/A   Mostly Cloudy
11:55 PM 48.6 °F 43.9 °F 84% 30.14 in 10.0 mi Calm Calm - N/A   Mostly Cloudy